Regional Weather Roundup
Issued by NWS Northern Indiana

Home | Current Version | Previous Version | Graphics & Text | Print | Product List | Glossary On
Versions: 1 2 3 4 5 6 7 8 9 10 11 12 13 14 15 16 17 18 19 20 21 22 23 24 25 26 27 28 29 30 31 32 33 34 35 36 37 38 39 40 41 42 43 44 45 46 47 48 49 50
000
ASUS43 KIWX 211900
RWRIWX

KIWX WEATHER ROUNDUP
NATIONAL WEATHER SERVICE NORTHERN INDIANA
300 PM EDT TUE OCT 21 2014

NOTE: "FAIR" INDICATES FEW OR NO CLOUDS BELOW 12,000 FEET WITH NO
SIGNIFICANT WEATHER AND/OR OBSTRUCTIONS TO VISIBILITY.

* THESE STATIONS ARE NOT UNDER NWS QUALITY CONTROL. THEY ALSO MAY NOT
  REPORT WEATHER SUCH AS PRECIPITATION OR FOG.

INZ001>027-212000-
NORTHERN INDIANA

CITY           SKY/WX    TMP DP  RH WIND       PRES   REMARKS
GARY*          CLOUDY    52  43  71 N12G23    30.17R
SOUTH BEND     CLOUDY    53  41  63 N13       30.13S
ELKHART*       CLOUDY    50  41  71 N8        30.12S
GOSHEN         CLOUDY    51  43  74 N13       30.10F
ANGOLA*        CLOUDY    48  36  61 N9        30.09S
FORT WAYNE     CLOUDY    52  43  71 N9        30.09S

$$
INZ028>050-212000-
CENTRAL INDIANA

CITY           SKY/WX    TMP DP  RH WIND       PRES   REMARKS
LAFAYETTE      CLOUDY    53  43  68 NW9       30.12R
KOKOMO*        CLOUDY    55  43  62 N13       30.09S
MUNCIE*        CLOUDY    53  42  66 N13       30.07S
INDIANAPOLIS   CLOUDY    55  40  56 N10       30.08S

$$
MIZ043>046-050>051-056>058-064>065-071>073-077>080-212000-
SOUTHWEST LOWER MICHIGAN

CITY           SKY/WX    TMP DP  RH WIND       PRES   REMARKS
BATTLE CREEK   CLOUDY    49  38  65 N14G21    30.12S
BENTON HARBOR  CLOUDY    49  40  71 N7        30.14R
COLDWATER*     CLOUDY    49  39  66 N12G17    30.10S
HILLSDALE*     CLOUDY    48  40  75 N9        30.09R
HOLLAND        CLOUDY    51  38  60 VRB6      30.16R
GRAND RAPIDS   CLOUDY    49  38  65 N12       30.15R
KALAMAZOO      CLOUDY    49  38  65 N13       30.13R
STURGIS*       CLOUDY    48  41  76 N6        30.10F
THREE RIVERS*  CLOUDY    49  41  72 N8        30.12S

$$
OHZ001>008-015>018-024>025-212000-
NORTHWEST OHIO

CITY           SKY/WX    TMP DP  RH WIND       PRES   REMARKS
DEFIANCE       CLOUDY    51  40  65 N12       30.08S
FINDLAY        CLOUDY    50  41  71 N16       30.04R
TOLEDO EXPRESS CLOUDY    48  38  68 N13G23    30.07R
TOLEDO METCALF CLOUDY    49  38  65 N13G23    30.07R
LIMA           CLOUDY    50  42  74 N15G22    30.05R

$$
AND FOR LAKE MICHIGAN COASTAL AND OPEN LAKE BUOY OBSERVATIONS

STATION/POSITION TEMP    WIND        PRES    VSBY  WAVE
                 AIR SEA DIR/SP/G                  HT/PER
                 (F)     (DEG/KT/KT) (MB)    (MI)  (FT/S)
CALUMET HARBOR    51     340/ 15/ 21 1020.4
MICHIGAN CITY     51     350/ 22/ 25   N/A
SAINT JOSEPH      51                 1021.3R
SOUTH LAKE BUOY   49 54  360/ 16/ 19 1021.5R         6/ 7
SAINT JOSEPH CG                      1020.5      6   3

$$
&&



USA.gov is the U.S. government's official web portal to all federal, state and local government web resources and services.